Zurück zum Katalog

DELTA 1 DEB

AktivSSO
NORAD 12218·DEBRIS·🇺🇸 United States

Gestartet Mar 5, 1978 von Vandenberg Space Force Base

Loading…

Nächste Überflüge (nächste 24 Stunden)

TLE

AktuellSource: Space-Track

Epoche: Sep 14, 2026, 15:47 UTC

1 12218U 78026BK  26257.65783278 -.00000056  00000-0 -63360-5 0  9991
2 12218  99.3138 142.5827 0051339 289.5757  88.8443 13.98265434322133

Verfolge DELTA 1 DEB in Echtzeit mit AllMySat

Download on the App Store